,,PA_Meas_PMT16A,,PR_Meas_QMR101_102,,RH_Meas_QMH101,,SR_Meas_QMS101,,TA_Meas_QMH101,,GenWind,,GenWind,
time,status,PA,status,PR,status,RH,status,SR,status,TA,status,DirAvg,status,SpdAvg,
2014-09-13, 00:00:04,VALID,918.647,VALID,0,VALID,97.4273,VALID,0,VALID,19.5663,VALID,2,VALID,0,
2014-09-13, 00:01:04,VALID,918.647,VALID,0,VALID,97.4501,VALID,0,VALID,19.4868,VALID,18,VALID,0,
2014-09-13, 00:02:04,VALID,918.63,VALID,0,VALID,97.4349,VALID,0,VALID,19.4883,VALID,18,VALID,0,
2014-09-13, 00:03:04,VALID,918.646,VALID,0,VALID,97.4349,VALID,0,VALID,19.4688,VALID,18,VALID,0,
2014-09-13, 00:04:04,VALID,918.645,VALID,0,VALID,97.4501,VALID,0,VALID,19.4493,VALID,18,VALID,0,
2014-09-13, 00:05:04,VALID,918.595,VALID,0,VALID,97.4654,VALID,0,VALID,19.4298,VALID,18,VALID,0,
2014-09-13, 00:06:04,VALID,918.593,VALID,0,VALID,97.4654,VALID,0,VALID,19.4313,VALID,18,VALID,0,
2014-09-13, 00:07:04,VALID,918.558,VALID,0,VALID,97.4577,VALID,0,VALID,19.4118,VALID,18,VALID,0,
2014-09-13, 00:08:04,VALID,918.574,VALID,0,VALID,97.4577,VALID,0,VALID,19.3923,VALID,18,VALID,0,
2014-09-13, 00:09:04,VALID,918.554,VALID,0,VALID,97.4577,VALID,0,VALID,19.3923,VALID,18,VALID,0,
2014-09-13, 00:10:04,VALID,918.575,VALID,0,VALID,97.4654,VALID,0,VALID,19.3713,VALID,18,VALID,0,
2014-09-13, 00:11:04,VALID,918.587,VALID,0,VALID,97.4425,VALID,0,VALID,19.3533,VALID,18,VALID,0,
2014-09-13, 00:12:04,VALID,918.598,VALID,0,VALID,97.473,VALID,0,VALID,19.3533,VALID,18,VALID,0,
2014-09-13, 00:13:04,VALID,918.594,VALID,0,VALID,97.4501,VALID,0,VALID,19.3533,VALID,18,VALID,0,
2014-09-13, 00:14:04,VALID,918.616,VALID,0,VALID,97.4501,VALID,0,VALID,19.3338,VALID,18,VALID,0,
2014-09-13, 00:15:04,VALID,918.616,VALID,0,VALID,97.473,VALID,0,VALID,19.3338,VALID,18,VALID,0,
2014-09-13, 00:16:04,VALID,918.618,VALID,0,VALID,97.4577,VALID,0,VALID,19.3323,VALID,18,VALID,0,
2014-09-13, 00:17:04,VALID,918.609,VALID,0,VALID,97.4501,VALID,0,VALID,19.3338,VALID,340,VALID,0,
2014-09-13, 00:18:04,VALID,918.605,VALID,0,VALID,97.4501,VALID,0,VALID,19.3533,VALID,334,VALID,0,
2014-09-13, 00:19:04,VALID,918.588,VALID,0,VALID,97.4501,VALID,0,VALID,19.3533,VALID,334,VALID,0,
2014-09-13, 00:20:04,VALID,918.607,VALID,0,VALID,97.4654,VALID,0.107441,VALID,19.3713,VALID,334,VALID,0,
2014-09-13, 00:21:04,VALID,918.605,VALID,0,VALID,97.4577,VALID,0.107441,VALID,19.4103,INVALID,360,VALID,0,
2014-09-13, 00:22:04,VALID,918.603,VALID,0,VALID,97.4349,VALID,0,VALID,19.4298,INVALID,360,VALID,0,
2014-09-13, 00:23:04,VALID,918.587,VALID,0,VALID,97.4501,VALID,0,VALID,19.4493,VALID,334,VALID,0,
2014-09-13, 00:24:04,VALID,918.553,VALID,0,VALID,97.4349,VALID,0,VALID,19.4688,VALID,334,VALID,0,
2014-09-13, 00:25:04,VALID,918.531,VALID,0,VALID,97.4425,VALID,0,VALID,19.4688,VALID,334,VALID,0,
2014-09-13, 00:26:04,VALID,918.565,VALID,0,VALID,97.4577,VALID,0,VALID,19.4478,INVALID,360,VALID,0,
2014-09-13, 00:27:04,VALID,918.561,VALID,0,VALID,97.4577,VALID,0,VALID,19.4688,INVALID,360,VALID,0,
2014-09-13, 00:28:04,VALID,918.536,VALID,0,VALID,97.4654,VALID,0,VALID,19.4688,INVALID,360,VALID,0,
2014-09-13, 00:29:04,VALID,918.53,VALID,0,VALID,97.4501,VALID,0,VALID,19.4688,VALID,334,VALID,0,
2014-09-13, 00:30:04,VALID,918.523,VALID,0,VALID,97.4273,VALID,0,VALID,19.4883,VALID,334,VALID,0,
2014-09-13, 00:31:04,VALID,918.465,VALID,0,VALID,97.4425,VALID,0,VALID,19.4883,VALID,334,VALID,0,
2014-09-13, 00:32:04,VALID,918.477,VALID,0,VALID,97.4654,VALID,0,VALID,19.5468,VALID,334,VALID,0,
2014-09-13, 00:33:04,VALID,918.488,VALID,0,VALID,97.4654,VALID,0,VALID,19.5663,VALID,334,VALID,0,
2014-09-13, 00:34:04,VALID,918.486,VALID,0,VALID,97.4425,VALID,0.107441,VALID,19.6053,VALID,334,VALID,0,
2014-09-13, 00:35:04,VALID,918.463,VALID,0,VALID,97.4425,VALID,0.107441,VALID,19.6248,VALID,334,VALID,0,
2014-09-13, 00:36:04,VALID,918.48,VALID,0,VALID,97.4425,VALID,0,VALID,19.6248,VALID,334,VALID,0,
2014-09-13, 00:37:04,VALID,918.515,VALID,0,VALID,97.4425,VALID,0,VALID,19.6248,VALID,334,VALID,0,
2014-09-13, 00:38:04,VALID,918.502,VALID,0,VALID,97.4577,VALID,0.107441,VALID,19.6443,VALID,334,VALID,0,
2014-09-13, 00:39:04,VALID,918.537,VALID,0,VALID,97.4654,VALID,0,VALID,19.6053,VALID,334,VALID,0,
2014-09-13, 00:40:04,VALID,918.539,VALID,0,VALID,97.4577,VALID,0,VALID,19.6248,VALID,334,VALID,0,
2014-09-13, 00:41:04,VALID,918.521,VALID,0,VALID,97.4501,VALID,0,VALID,19.6443,VALID,334,VALID,0,
2014-09-13, 00:42:04,VALID,918.555,VALID,0,VALID,97.4577,VALID,0,VALID,19.6443,VALID,334,VALID,0,
2014-09-13, 00:43:04,VALID,918.56,VALID,0,VALID,97.4501,VALID,0,VALID,19.6248,INVALID,360,VALID,0,
2014-09-13, 00:44:04,VALID,918.553,VALID,0,VALID,97.4654,VALID,0,VALID,19.5858,VALID,334,VALID,0,
2014-09-13, 00:45:04,VALID,918.535,VALID,0,VALID,97.473,VALID,0,VALID,19.5468,INVALID,360,VALID,0,
2014-09-13, 00:46:04,VALID,918.544,VALID,0,VALID,97.473,VALID,0,VALID,19.5468,VALID,334,VALID,0,
2014-09-13, 00:47:04,VALID,918.519,VALID,0,VALID,97.473,VALID,0,VALID,19.5273,VALID,334,VALID,0,
2014-09-13, 00:48:04,VALID,918.516,VALID,0,VALID,97.4806,VALID,0,VALID,19.5063,VALID,334,VALID,0,
2014-09-13, 00:49:04,VALID,918.512,VALID,0,VALID,97.4577,VALID,0,VALID,19.5078,VALID,334,VALID,0,
2014-09-13, 00:50:04,VALID,918.525,VALID,0,VALID,97.4959,VALID,0,VALID,19.5078,VALID,334,VALID,0,
2014-09-13, 00:51:04,VALID,918.496,VALID,0,VALID,97.4806,VALID,0,VALID,19.5078,VALID,334,VALID,0,
2014-09-13, 00:52:04,VALID,918.481,VALID,0,VALID,97.473,VALID,0,VALID,19.4868,VALID,334,VALID,0,
2014-09-13, 00:53:04,VALID,918.451,VALID,0,VALID,97.4654,VALID,0,VALID,19.5273,VALID,334,VALID,0,
2014-09-13, 00:54:04,VALID,918.43,VALID,0,VALID,97.4577,VALID,0,VALID,19.5273,VALID,334,VALID,0,
2014-09-13, 00:55:04,VALID,918.412,VALID,0,VALID,97.473,VALID,0.107441,VALID,19.5663,VALID,334,VALID,0,
2014-09-13, 00:56:04,VALID,918.381,VALID,0,VALID,97.473,VALID,0,VALID,19.5663,VALID,334,VALID,0,
2014-09-13, 00:57:04,VALID,918.408,VALID,0,VALID,97.4806,VALID,0,VALID,19.5663,VALID,334,VALID,0,
2014-09-13, 00:58:04,VALID,918.357,VALID,0,VALID,97.473,VALID,0,VALID,19.5858,VALID,334,VALID,0,
2014-09-13, 00:59:04,VALID,918.358,VALID,0,VALID,97.4654,VALID,0,VALID,19.5858,VALID,334,VALID,0,
2014-09-13, 01:00:04,VALID,918.349,VALID,0,VALID,97.4806,VALID,0,VALID,19.5663,VALID,334,VALID,0,
2014-09-13, 01:01:04,VALID,918.303,VALID,0,VALID,97.4882,VALID,0,VALID,19.5858,VALID,334,VALID,0,
2014-09-13, 01:02:04,VALID,918.315,VALID,0,VALID,97.473,VALID,0,VALID,19.5858,VALID,334,VALID,0,
2014-09-13, 01:03:04,VALID,918.304,VALID,0,VALID,97.4654,VALID,0,VALID,19.5858,VALID,334,VALID,0,
2014-09-13, 01:04:04,VALID,918.27,VALID,0,VALID,97.4654,VALID,0.107441,VALID,19.6053,VALID,334,VALID,0,
2014-09-13, 01:05:04,VALID,918.249,VALID,0,VALID,97.4577,VALID,0.107441,VALID,19.5858,VALID,334,VALID,0,
2014-09-13, 01:06:04,VALID,918.212,VALID,0,VALID,97.4654,VALID,0,VALID,19.6053,VALID,334,VALID,0,
2014-09-13, 01:07:04,VALID,918.193,VALID,0,VALID,97.4654,VALID,0,VALID,19.6248,VALID,334,VALID,0,
2014-09-13, 01:08:04,VALID,918.159,VALID,0,VALID,97.4577,VALID,0,VALID,19.6443,VALID,334,VALID,0,
2014-09-13, 01:09:04,VALID,918.133,VALID,0,VALID,97.4577,VALID,0,VALID,19.6248,VALID,334,VALID,0,
2014-09-13, 01:10:04,VALID,918.143,VALID,0,VALID,97.4425,VALID,0,VALID,19.6638,VALID,334,VALID,0,
2014-09-13, 01:11:04,VALID,918.136,VALID,0,VALID,97.473,VALID,0,VALID,19.6443,VALID,334,VALID,0,
2014-09-13, 01:12:04,VALID,918.12,VALID,0,VALID,97.4882,VALID,0,VALID,19.6248,VALID,334,VALID,0,
2014-09-13, 01:13:04,VALID,918.116,VALID,0,VALID,97.473,VALID,0.107441,VALID,19.5858,VALID,334,VALID,0,
2014-09-13, 01:14:04,VALID,918.091,VALID,0,VALID,97.4882,VALID,0.107441,VALID,19.5258,VALID,334,VALID,0,
2014-09-13, 01:15:04,VALID,918.068,VALID,0,VALID,97.4959,VALID,0,VALID,19.5273,VALID,334,VALID,0,
2014-09-13, 01:16:04,VALID,918.055,VALID,0,VALID,97.5111,VALID,0,VALID,19.5273,VALID,334,VALID,0,
2014-09-13, 01:17:04,VALID,918.033,VALID,0,VALID,97.4806,VALID,0.107441,VALID,19.5078,VALID,334,VALID,0,
2014-09-13, 01:18:04,VALID,918.006,VALID,0,VALID,97.4959,VALID,0,VALID,19.4883,VALID,334,VALID,0,
2014-09-13, 01:19:04,VALID,918.002,VALID,0,VALID,97.4882,VALID,0,VALID,19.4883,VALID,338,VALID,0,
2014-09-13, 01:20:04,VALID,917.984,VALID,0,VALID,97.5035,VALID,0,VALID,19.4673,VALID,338,VALID,0,
2014-09-13, 01:21:04,VALID,917.968,VALID,0,VALID,97.5035,VALID,0,VALID,19.4673,VALID,338,VALID,0,
2014-09-13, 01:22:04,VALID,917.948,VALID,0,VALID,97.4959,VALID,0.107441,VALID,19.4688,VALID,338,VALID,0,
2014-09-13, 01:23:04,VALID,917.944,VALID,0,VALID,97.4806,VALID,0.107441,VALID,19.4673,VALID,338,VALID,0,
2014-09-13, 01:24:04,VALID,917.888,VALID,0,VALID,97.5035,VALID,0.107441,VALID,19.4883,VALID,338,VALID,0,
2014-09-13, 01:25:04,VALID,917.864,VALID,0,VALID,97.5035,VALID,0.107441,VALID,19.4478,VALID,21,VALID,0,
2014-09-13, 01:26:04,VALID,917.893,VALID,0,VALID,97.5264,VALID,0,VALID,19.4283,VALID,21,VALID,0,
2014-09-13, 01:27:04,VALID,917.873,VALID,0,VALID,97.5187,VALID,0,VALID,19.4103,VALID,21,VALID,0,
2014-09-13, 01:28:04,VALID,917.86,VALID,0,VALID,97.5416,VALID,0,VALID,19.3908,VALID,21,VALID,0,
2014-09-13, 01:29:04,VALID,917.863,VALID,0,VALID,97.534,VALID,0.107441,VALID,19.3698,VALID,21,VALID,0,
2014-09-13, 01:30:04,VALID,917.86,VALID,0,VALID,97.5111,VALID,0,VALID,19.3503,VALID,21,VALID,0,
2014-09-13, 01:31:04,VALID,917.859,VALID,0,VALID,97.534,VALID,0.107441,VALID,19.3713,VALID,21,VALID,0,
2014-09-13, 01:32:04,VALID,917.852,VALID,0,VALID,97.5416,VALID,0.107441,VALID,19.3308,VALID,21,VALID,0,
2014-09-13, 01:33:04,VALID,917.85,VALID,0,VALID,97.5416,VALID,0.107441,VALID,19.3323,VALID,21,VALID,0,
2014-09-13, 01:34:04,VALID,917.855,VALID,0,VALID,97.5416,VALID,0.107441,VALID,19.3113,VALID,21,VALID,0,
2014-09-13, 01:35:04,VALID,917.872,VALID,0,VALID,97.5264,VALID,0,VALID,19.3323,VALID,21,VALID,0,
2014-09-13, 01:36:04,VALID,917.857,VALID,0,VALID,97.5187,VALID,0.107441,VALID,19.3518,VALID,21,VALID,0,
2014-09-13, 01:37:04,VALID,917.845,VALID,0,VALID,97.5264,VALID,0,VALID,19.3308,VALID,21,VALID,0,
2014-09-13, 01:38:04,VALID,917.85,VALID,0,VALID,97.534,VALID,0,VALID,19.3308,VALID,21,VALID,0,
2014-09-13, 01:39:04,VALID,917.828,VALID,0,VALID,97.5187,VALID,0,VALID,19.3503,VALID,21,VALID,0,
2014-09-13, 01:40:04,VALID,917.806,VALID,0,VALID,97.534,VALID,0,VALID,19.3308,VALID,21,VALID,0,
2014-09-13, 01:41:04,VALID,917.82,VALID,0,VALID,97.5416,VALID,0.107441,VALID,19.2918,VALID,21,VALID,0,
2014-09-13, 01:42:04,VALID,917.784,VALID,0,VALID,97.5492,VALID,0.107441,VALID,19.2918,VALID,21,VALID,0,
2014-09-13, 01:43:04,VALID,917.773,VALID,0,VALID,97.5416,VALID,0,VALID,19.2933,VALID,21,VALID,0,
2014-09-13, 01:44:04,VALID,917.766,VALID,0,VALID,97.5416,VALID,0,VALID,19.2723,VALID,21,VALID,0,
2014-09-13, 01:45:04,VALID,917.782,VALID,0,VALID,97.5416,VALID,0,VALID,19.3113,VALID,21,VALID,0,
2014-09-13, 01:46:04,VALID,917.803,VALID,0,VALID,97.534,VALID,0.107441,VALID,19.3503,VALID,21,VALID,0,
2014-09-13, 01:47:04,VALID,917.809,VALID,0,VALID,97.534,VALID,0,VALID,19.3308,VALID,21,VALID,0,
2014-09-13, 01:48:04,VALID,917.813,VALID,0,VALID,97.5416,VALID,0,VALID,19.3323,VALID,21,VALID,0,
2014-09-13, 01:49:04,VALID,917.823,VALID,0,VALID,97.534,VALID,0.107441,VALID,19.2918,VALID,21,VALID,0,
2014-09-13, 01:50:04,VALID,917.812,VALID,0,VALID,97.534,VALID,0,VALID,19.3338,VALID,21,VALID,0,
2014-09-13, 01:51:04,VALID,917.789,VALID,0,VALID,97.5416,VALID,0,VALID,19.3323,VALID,21,VALID,0,
2014-09-13, 01:52:04,VALID,917.782,VALID,0,VALID,97.5569,VALID,0,VALID,19.3143,VALID,21,VALID,0,
2014-09-13, 01:53:04,VALID,917.774,VALID,0,VALID,97.534,VALID,0,VALID,19.3143,VALID,21,VALID,0,
2014-09-13, 01:54:04,VALID,917.75,VALID,0,VALID,97.5416,VALID,0,VALID,19.3128,VALID,21,VALID,0,
2014-09-13, 01:55:04,VALID,917.758,VALID,0,VALID,97.5264,VALID,0,VALID,19.3923,VALID,21,VALID,0,
2014-09-13, 01:56:04,VALID,917.734,VALID,0,VALID,97.534,VALID,0,VALID,19.3908,VALID,21,VALID,0,
2014-09-13, 01:57:04,VALID,917.749,VALID,0,VALID,97.5264,VALID,0,VALID,19.3908,VALID,21,VALID,0,
2014-09-13, 01:58:04,VALID,917.744,VALID,0,VALID,97.5264,VALID,0,VALID,19.3908,VALID,21,VALID,0,
2014-09-13, 01:59:04,VALID,917.747,VALID,0,VALID,97.5187,VALID,0,VALID,19.4103,VALID,21,VALID,0,
2014-09-13, 02:00:04,VALID,917.758,VALID,0,VALID,97.5492,VALID,0,VALID,19.3908,VALID,21,VALID,0,
2014-09-13, 02:01:04,VALID,917.746,VALID,0,VALID,97.534,VALID,0,VALID,19.3728,VALID,21,VALID,0,
2014-09-13, 02:02:04,VALID,917.737,VALID,0,VALID,97.5416,VALID,0,VALID,19.3338,VALID,21,VALID,0,
2014-09-13, 02:03:04,VALID,917.731,VALID,0,VALID,97.5492,VALID,0,VALID,19.3338,VALID,21,VALID,0,
2014-09-13, 02:04:04,VALID,917.731,VALID,0,VALID,97.5492,VALID,0,VALID,19.3143,VALID,21,VALID,0,
2014-09-13, 02:05:04,VALID,917.727,VALID,0,VALID,97.5569,VALID,0,VALID,19.3323,VALID,21,VALID,0,
2014-09-13, 02:06:04,VALID,917.777,VALID,0,VALID,97.5492,VALID,0,VALID,19.2933,VALID,21,VALID,0,
2014-09-13, 02:07:04,VALID,917.735,VALID,0,VALID,97.5721,VALID,0,VALID,19.2738,VALID,21,VALID,0,
2014-09-13, 02:08:04,VALID,917.737,VALID,0,VALID,97.5721,VALID,0,VALID,19.2348,VALID,21,VALID,0,
2014-09-13, 02:09:04,VALID,917.729,VALID,0,VALID,97.5873,VALID,0.107441,VALID,19.2348,VALID,21,VALID,0,
2014-09-13, 02:10:04,VALID,917.711,VALID,0,VALID,97.5873,VALID,0,VALID,19.1749,VALID,21,VALID,0,
2014-09-13, 02:11:04,VALID,917.687,VALID,0,VALID,97.5873,VALID,0.107441,VALID,19.1763,VALID,21,VALID,0,
2014-09-13, 02:12:04,VALID,917.673,VALID,0,VALID,97.5721,VALID,0,VALID,19.1359,VALID,21,VALID,0,
2014-09-13, 02:13:04,VALID,917.662,VALID,0,VALID,97.5873,VALID,0,VALID,19.1568,VALID,21,VALID,0,
2014-09-13, 02:14:04,VALID,917.69,VALID,0,VALID,97.5721,VALID,0,VALID,19.1568,VALID,21,VALID,0,
2014-09-13, 02:15:04,VALID,917.703,VALID,0,VALID,97.5797,VALID,0,VALID,19.1763,VALID,21,VALID,0,
2014-09-13, 02:16:04,VALID,917.695,VALID,0,VALID,97.5721,VALID,0.107441,VALID,19.1568,VALID,21,VALID,0,
2014-09-13, 02:17:04,VALID,917.686,VALID,0,VALID,97.5797,VALID,0,VALID,19.1958,VALID,21,VALID,0,
2014-09-13, 02:18:04,VALID,917.676,VALID,0,VALID,97.5492,VALID,0.107441,VALID,19.1749,VALID,21,VALID,0,
2014-09-13, 02:19:04,VALID,917.68,VALID,0,VALID,97.5721,VALID,0.107441,VALID,19.1359,VALID,22,VALID,0,
2014-09-13, 02:20:04,VALID,917.7,VALID,0,VALID,97.5873,VALID,0,VALID,19.1388,VALID,21,VALID,0,
2014-09-13, 02:21:04,VALID,917.67,VALID,0,VALID,97.5721,VALID,0,VALID,19.1402,VALID,21,VALID,0,
2014-09-13, 02:22:04,VALID,917.667,VALID,0,VALID,97.5797,VALID,0,VALID,19.1388,VALID,21,VALID,0,
2014-09-13, 02:23:04,VALID,917.652,VALID,0,VALID,97.5797,VALID,0,VALID,19.1583,VALID,21,VALID,0,
2014-09-13, 02:24:04,VALID,917.635,VALID,0,VALID,97.5569,VALID,0,VALID,19.1778,VALID,21,VALID,0,
2014-09-13, 02:25:04,VALID,917.623,VALID,0,VALID,97.5645,VALID,0,VALID,19.1973,VALID,21,VALID,0,
2014-09-13, 02:26:04,VALID,917.607,VALID,0,VALID,97.5645,VALID,0,VALID,19.2168,VALID,21,VALID,0,
2014-09-13, 02:27:04,VALID,917.601,VALID,0,VALID,97.5569,VALID,0,VALID,19.2363,VALID,21,VALID,0,
2014-09-13, 02:28:04,VALID,917.593,VALID,0,VALID,97.5492,VALID,0,VALID,19.2558,VALID,21,VALID,0,
2014-09-13, 02:29:04,VALID,917.534,VALID,0,VALID,97.5264,VALID,0,VALID,19.2753,VALID,21,VALID,0,
2014-09-13, 02:30:04,VALID,917.536,VALID,0,VALID,97.5569,VALID,0,VALID,19.2753,VALID,21,VALID,0,
2014-09-13, 02:31:04,VALID,917.511,VALID,0,VALID,97.5569,VALID,0,VALID,19.2948,VALID,21,VALID,0,
2014-09-13, 02:32:04,VALID,917.496,VALID,0,VALID,97.5492,VALID,0,VALID,19.3143,VALID,21,VALID,0,
2014-09-13, 02:33:04,VALID,917.49,VALID,0,VALID,97.5492,VALID,0,VALID,19.3143,VALID,20,VALID,0,
2014-09-13, 02:34:04,VALID,917.508,VALID,0,VALID,97.5569,VALID,0,VALID,19.3143,VALID,21,VALID,0,
2014-09-13, 02:35:04,VALID,917.502,VALID,0,VALID,97.5492,VALID,0,VALID,19.3128,VALID,21,VALID,0,
2014-09-13, 02:36:04,VALID,917.526,VALID,0,VALID,97.5645,VALID,0,VALID,19.3128,VALID,21,VALID,0,
2014-09-13, 02:37:04,VALID,917.545,VALID,0,VALID,97.5569,VALID,0,VALID,19.3323,VALID,21,VALID,0,
2014-09-13, 02:38:04,VALID,917.578,VALID,0,VALID,97.5721,VALID,0,VALID,19.3113,VALID,21,VALID,0,
2014-09-13, 02:39:04,VALID,917.561,VALID,0,VALID,97.5492,VALID,0,VALID,19.3518,VALID,21,VALID,0,
2014-09-13, 02:40:04,VALID,917.562,VALID,0,VALID,97.5645,VALID,0,VALID,19.3518,VALID,21,VALID,0,
2014-09-13, 02:41:04,VALID,917.581,VALID,0,VALID,97.5645,VALID,0.107441,VALID,19.3323,VALID,21,VALID,0,
2014-09-13, 02:42:04,VALID,917.602,VALID,0,VALID,97.5492,VALID,0,VALID,19.3518,VALID,21,VALID,0,
2014-09-13, 02:43:04,VALID,917.58,VALID,0,VALID,97.5721,VALID,0,VALID,19.3713,VALID,21,VALID,0,
2014-09-13, 02:44:04,VALID,917.587,VALID,0,VALID,97.5416,VALID,0,VALID,19.3908,VALID,21,VALID,0,
2014-09-13, 02:45:04,VALID,917.607,VALID,0,VALID,97.5492,VALID,0,VALID,19.3908,VALID,21,VALID,0,
2014-09-13, 02:46:04,VALID,917.578,VALID,0,VALID,97.5721,VALID,0,VALID,19.3308,VALID,21,VALID,0,
2014-09-13, 02:47:04,VALID,917.583,VALID,0,VALID,97.5645,VALID,0,VALID,19.3518,VALID,21,VALID,0,
2014-09-13, 02:48:04,VALID,917.567,VALID,0,VALID,97.5492,VALID,0,VALID,19.3518,VALID,21,VALID,0,
2014-09-13, 02:49:04,VALID,917.575,VALID,0,VALID,97.5721,VALID,0,VALID,19.3518,VALID,21,VALID,0,
2014-09-13, 02:50:04,VALID,917.589,VALID,0,VALID,97.5797,VALID,0,VALID,19.3323,VALID,21,VALID,0,
2014-09-13, 02:51:04,VALID,917.565,VALID,0,VALID,97.5569,VALID,0,VALID,19.3323,VALID,21,VALID,0,
2014-09-13, 02:52:04,VALID,917.593,VALID,0,VALID,97.5569,VALID,0,VALID,19.3518,VALID,21,VALID,0,
2014-09-13, 02:53:04,VALID,917.57,VALID,0,VALID,97.5569,VALID,0,VALID,19.3518,VALID,21,VALID,0,
2014-09-13, 02:54:04,VALID,917.558,VALID,0,VALID,97.5569,VALID,0.107441,VALID,19.3518,VALID,20,VALID,0,
2014-09-13, 02:55:04,VALID,917.545,VALID,0,VALID,97.5492,VALID,0,VALID,19.3518,VALID,21,VALID,0,
2014-09-13, 02:56:04,VALID,917.538,VALID,0,VALID,97.5721,VALID,0,VALID,19.3518,VALID,20,VALID,0,
2014-09-13, 02:57:04,VALID,917.523,VALID,0,VALID,97.5721,VALID,0,VALID,19.3518,VALID,20,VALID,0,
2014-09-13, 02:58:04,VALID,917.505,VALID,0,VALID,97.5569,VALID,0.107441,VALID,19.3713,VALID,21,VALID,0,
2014-09-13, 02:59:04,VALID,917.469,VALID,0,VALID,97.5416,VALID,0,VALID,19.3518,VALID,20,VALID,0,
2014-09-13, 03:00:04,VALID,917.468,VALID,0,VALID,97.5721,VALID,0,VALID,19.3128,VALID,21,VALID,0,
2014-09-13, 03:01:04,VALID,917.454,VALID,0,VALID,97.5721,VALID,0,VALID,19.3128,VALID,20,VALID,0,
2014-09-13, 03:02:04,VALID,917.446,VALID,0,VALID,97.5492,VALID,0,VALID,19.3323,VALID,20,VALID,0,
2014-09-13, 03:03:04,VALID,917.47,VALID,0,VALID,97.5645,VALID,0,VALID,19.3308,VALID,20,VALID,0,
2014-09-13, 03:04:04,VALID,917.475,VALID,0,VALID,97.5569,VALID,0,VALID,19.3518,VALID,20,VALID,0,
2014-09-13, 03:05:04,VALID,917.445,VALID,0,VALID,97.5492,VALID,0,VALID,19.3533,VALID,20,VALID,0,
2014-09-13, 03:06:04,VALID,917.454,VALID,0,VALID,97.534,VALID,0,VALID,19.3728,VALID,21,VALID,0,
2014-09-13, 03:07:04,VALID,917.447,VALID,0,VALID,97.5797,VALID,0,VALID,19.3923,VALID,21,VALID,0,
2014-09-13, 03:08:04,VALID,917.422,VALID,0,VALID,97.5492,VALID,0,VALID,19.3728,VALID,119,VALID,0,
2014-09-13, 03:09:04,VALID,917.417,VALID,0,VALID,97.5645,VALID,0,VALID,19.3728,VALID,147,VALID,0,
2014-09-13, 03:10:04,VALID,917.422,VALID,0,VALID,97.5645,VALID,0,VALID,19.3728,VALID,141,VALID,0,
2014-09-13, 03:11:04,VALID,917.396,VALID,0,VALID,97.5721,VALID,0,VALID,19.3728,VALID,142,VALID,0.0160156,
2014-09-13, 03:12:04,VALID,917.395,VALID,0,VALID,97.5873,VALID,0,VALID,19.3323,VALID,137,VALID,0,
2014-09-13, 03:13:04,VALID,917.344,VALID,0,VALID,97.5797,VALID,0,VALID,19.3323,VALID,142,VALID,1.00547,
2014-09-13, 03:14:04,VALID,917.325,VALID,0,VALID,97.5569,VALID,0,VALID,19.3728,VALID,131,VALID,0.251953,
2014-09-13, 03:15:04,VALID,917.354,VALID,0,VALID,97.5645,VALID,0,VALID,19.3533,VALID,144,VALID,0.542188,
2014-09-13, 03:16:04,VALID,917.317,VALID,0,VALID,97.5721,VALID,0,VALID,19.3533,VALID,135,VALID,0.938672,
2014-09-13, 03:17:04,VALID,917.318,VALID,0,VALID,97.5721,VALID,0,VALID,19.3533,VALID,146,VALID,1.36094,
2014-09-13, 03:18:04,VALID,917.297,VALID,0,VALID,97.5721,VALID,0,VALID,19.3728,VALID,143,VALID,1.50703,
2014-09-13, 03:19:04,VALID,917.273,VALID,0,VALID,97.5721,VALID,0,VALID,19.3518,VALID,151,VALID,1.24063,
2014-09-13, 03:20:04,VALID,917.264,VALID,0,VALID,97.5569,VALID,0,VALID,19.3533,VALID,152,VALID,0.616406,
2014-09-13, 03:21:04,VALID,917.296,VALID,0,VALID,97.5569,VALID,0,VALID,19.3533,VALID,144,VALID,1.55586,
2014-09-13, 03:22:04,VALID,917.277,VALID,0,VALID,97.5721,VALID,0,VALID,19.3533,VALID,143,VALID,0.344141,
2014-09-13, 03:23:04,VALID,917.261,VALID,0,VALID,97.5721,VALID,0,VALID,19.3323,VALID,140,VALID,0.273438,
2014-09-13, 03:24:04,VALID,917.273,VALID,0,VALID,97.5645,VALID,0,VALID,19.3533,VALID,154,VALID,0.721094,
2014-09-13, 03:25:04,VALID,917.275,VALID,0,VALID,97.5569,VALID,0,VALID,19.3533,VALID,151,VALID,0.198047,
2014-09-13, 03:26:04,VALID,917.26,VALID,0,VALID,97.5645,VALID,0,VALID,19.3323,VALID,145,VALID,0.466797,
2014-09-13, 03:27:04,VALID,917.272,VALID,0,VALID,97.5721,VALID,0,VALID,19.3518,VALID,138,VALID,0.138281,
2014-09-13, 03:28:04,VALID,917.275,VALID,0,VALID,97.5873,VALID,0,VALID,19.3518,VALID,149,VALID,1.18164,
2014-09-13, 03:29:04,VALID,917.254,VALID,0,VALID,97.5645,VALID,0,VALID,19.3323,VALID,150,VALID,0.00585938,
2014-09-13, 03:30:04,VALID,917.282,VALID,0,VALID,97.5645,VALID,0,VALID,19.3713,VALID,143,VALID,0.760938,
2014-09-13, 03:35:04,VALID,917.295,VALID,0,VALID,97.5645,VALID,0,VALID,19.3923,VALID,168,VALID,0.302344,
2014-09-13, 03:36:04,VALID,917.292,VALID,0,VALID,97.5721,VALID,0,VALID,19.3728,VALID,175,VALID,0,
2014-09-13, 06:48:04,VALID,918.443,VALID,0,VALID,97.6407,VALID,32.2323,VALID,19.0008,VALID,141,VALID,0,
2014-09-13, 06:49:04,VALID,918.431,VALID,0,VALID,97.656,VALID,34.3812,VALID,19.0203,VALID,141,VALID,0,
2014-09-13, 06:50:04,VALID,918.411,VALID,0,VALID,97.656,VALID,36.6374,VALID,19.0398,VALID,141,VALID,0,
2014-09-13, 06:51:04,VALID,918.45,VALID,0,VALID,97.6483,VALID,39.1086,VALID,19.0398,VALID,141,VALID,0,
2014-09-13, 06:52:04,VALID,918.44,VALID,0,VALID,97.656,VALID,41.5797,VALID,19.0189,VALID,141,VALID,0,
2014-09-13, 06:53:04,VALID,918.416,VALID,0,VALID,97.656,VALID,44.2658,VALID,18.9994,VALID,140,VALID,0,
2014-09-13, 06:54:04,VALID,918.405,VALID,0,VALID,97.656,VALID,46.9518,VALID,19.0398,VALID,131,VALID,0,
2014-09-13, 06:55:04,VALID,918.416,VALID,0,VALID,97.6407,VALID,49.6378,VALID,19.0384,VALID,131,VALID,0,
2014-09-13, 06:56:04,VALID,918.424,VALID,0,VALID,97.6483,VALID,52.3238,VALID,19.0593,VALID,114,VALID,0,
2014-09-13, 06:57:04,VALID,918.466,VALID,0,VALID,97.6407,VALID,55.0099,VALID,19.0788,VALID,115,VALID,0,
2014-09-13, 06:58:04,VALID,918.417,VALID,0,VALID,97.6407,VALID,57.6959,VALID,19.1178,VALID,116,VALID,0,
2014-09-13, 06:59:04,VALID,918.468,VALID,0,VALID,97.6407,VALID,60.4894,VALID,19.1178,VALID,118,VALID,0,
2014-09-13, 07:00:04,VALID,918.469,VALID,0,VALID,97.6331,VALID,63.1754,VALID,19.1568,VALID,118,VALID,0,
2014-09-13, 07:01:04,VALID,918.493,VALID,0,VALID,97.6331,VALID,66.0763,VALID,19.1763,VALID,121,VALID,0,
2014-09-13, 07:02:04,VALID,918.489,VALID,0,VALID,97.6331,VALID,69.2995,VALID,19.1958,VALID,140,VALID,0,
2014-09-13, 07:03:04,VALID,918.485,VALID,0,VALID,97.6331,VALID,73.06,VALID,19.2153,VALID,140,VALID,0,
2014-09-13, 07:04:04,VALID,918.49,VALID,0,VALID,97.6178,VALID,77.0353,VALID,19.2543,VALID,142,VALID,0,
2014-09-13, 07:05:04,VALID,918.465,VALID,0,VALID,97.6178,VALID,81.6553,VALID,19.2738,VALID,142,VALID,0,
2014-09-13, 07:06:04,VALID,918.488,VALID,0,VALID,97.6026,VALID,86.4901,VALID,19.3128,VALID,136,VALID,0,
2014-09-13, 07:07:04,VALID,918.495,VALID,0,VALID,97.595,VALID,94.8705,VALID,19.3518,VALID,135,VALID,0,
2014-09-13, 07:08:04,VALID,918.529,VALID,0,VALID,97.6026,VALID,99.2756,VALID,19.3908,VALID,135,VALID,0,
2014-09-13, 07:09:04,VALID,918.51,VALID,0,VALID,97.5797,VALID,105.292,VALID,19.3908,VALID,134,VALID,0.120312,
2014-09-13, 07:10:04,VALID,918.523,VALID,0,VALID,97.6026,VALID,116.251,VALID,19.4103,VALID,140,VALID,0.541016,